Time,TemperatureF,DewpointF,PressureIn,WindDirection,WindDirectionDegrees,WindSpeedMPH,WindSpeedGustMPH,Humidity,HourlyPrecipIn,Conditions,Clouds,dailyrainin,SoftwareType,DateUTC
2013-04-11 00:02:00,42.1,39.9,29.91,WNW,296,1.0,7.0,92,0.00,,,0.00,meteohub,2013-04-11 05:02:00,
2013-04-11 00:07:00,42.1,39.9,29.91,NW,318,2.0,8.0,92,0.00,,,0.00,meteohub,2013-04-11 05:07:00,
2013-04-11 00:12:00,42.1,39.6,29.91,NW,313,0.0,8.0,91,0.00,,,0.00,meteohub,2013-04-11 05:12:00,
2013-04-11 00:17:00,42.3,39.7,29.92,West,278,1.0,6.0,91,0.00,,,0.00,meteohub,2013-04-11 05:17:00,
2013-04-11 00:22:00,42.3,39.7,29.92,North,5,0.0,9.0,91,0.00,,,0.00,meteohub,2013-04-11 05:22:00,
2013-04-11 00:27:00,42.3,39.7,29.91,WNW,294,3.0,9.0,91,0.00,,,0.00,meteohub,2013-04-11 05:27:00,
2013-04-11 00:32:00,42.3,39.7,29.90,NNE,26,2.0,9.0,91,0.00,,,0.00,meteohub,2013-04-11 05:32:00,
2013-04-11 00:37:00,42.3,39.6,29.90,NW,311,4.0,7.0,90,0.00,,,0.00,meteohub,2013-04-11 05:37:00,
2013-04-11 00:42:00,42.3,39.6,29.91,NW,308,2.0,7.0,90,0.00,,,0.00,meteohub,2013-04-11 05:42:00,
2013-04-11 00:47:00,42.3,39.6,29.91,NNE,15,1.0,6.0,90,0.00,,,0.00,meteohub,2013-04-11 05:47:00,
2013-04-11 00:52:00,42.1,39.6,29.91,WNW,286,1.0,7.0,91,0.00,,,0.00,meteohub,2013-04-11 05:52:00,
2013-04-11 00:57:00,42.1,39.6,29.91,WNW,297,0.0,7.0,91,0.00,,,0.00,meteohub,2013-04-11 05:57:00,
2013-04-11 01:02:00,42.1,39.6,29.91,NNW,335,0.0,4.0,91,0.00,,,0.00,meteohub,2013-04-11 06:02:00,
2013-04-11 01:07:00,42.1,39.6,29.91,NW,307,1.0,4.0,91,0.00,,,0.00,meteohub,2013-04-11 06:07:00,
2013-04-11 01:12:00,42.1,39.6,29.92,NNW,342,0.0,4.0,91,0.00,,,0.00,meteohub,2013-04-11 06:12:00,
2013-04-11 01:17:00,41.9,39.4,29.92,NNW,342,1.0,3.0,91,0.00,,,0.00,meteohub,2013-04-11 06:17:00,
2013-04-11 01:22:00,41.7,39.2,29.93,NNW,342,0.0,3.0,91,0.00,,,0.00,meteohub,2013-04-11 06:22:00,
2013-04-11 01:27:00,41.5,39.2,29.93,North,355,1.0,3.0,91,0.00,,,0.00,meteohub,2013-04-11 06:27:00,
2013-04-11 01:37:00,41.2,38.5,29.95,NNW,335,0.0,4.0,90,0.00,,,0.00,meteohub,2013-04-11 06:37:00,
2013-04-11 01:47:00,40.8,38.1,29.94,NW,308,1.0,3.0,90,0.00,,,0.00,meteohub,2013-04-11 06:47:00,
2013-04-11 01:57:00,40.5,38.1,29.94,WNW,293,0.0,3.0,91,0.00,,,0.00,meteohub,2013-04-11 06:57:00,
2013-04-11 02:02:00,40.3,37.9,29.93,WNW,288,1.0,3.0,91,0.00,,,0.00,meteohub,2013-04-11 07:02:00,
2013-04-11 02:12:00,39.9,37.6,29.91,WNW,288,2.0,4.0,91,0.00,,,0.00,meteohub,2013-04-11 07:12:00,
2013-04-11 02:22:00,39.6,37.2,29.90,WNW,294,1.0,4.0,91,0.00,,,0.00,meteohub,2013-04-11 07:22:00,
2013-04-11 02:27:00,39.4,37.2,29.90,NW,319,1.0,5.0,92,0.00,,,0.00,meteohub,2013-04-11 07:27:00,
2013-04-11 02:32:00,39.4,37.0,29.90,NNW,334,1.0,5.0,91,0.00,,,0.00,meteohub,2013-04-11 07:32:00,
2013-04-11 02:42:00,39.0,36.7,29.91,NNW,335,0.0,4.0,91,0.00,,,0.00,meteohub,2013-04-11 07:42:00,
2013-04-11 02:47:00,39.0,36.3,29.91,WNW,289,2.0,6.0,90,0.00,,,0.00,meteohub,2013-04-11 07:47:00,
2013-04-11 02:52:00,38.8,36.1,29.93,West,267,0.0,6.0,90,0.00,,,0.00,meteohub,2013-04-11 07:52:00,
2013-04-11 02:57:00,38.8,36.0,29.94,NNE,21,1.0,6.0,89,0.00,,,0.00,meteohub,2013-04-11 07:57:00,
2013-04-11 03:07:00,38.7,35.8,29.94,WNW,294,0.0,6.0,89,0.00,,,0.00,meteohub,2013-04-11 08:07:00,
2013-04-11 03:17:00,38.5,35.2,29.94,NNW,338,0.0,6.0,88,0.00,,,0.00,meteohub,2013-04-11 08:17:00,
2013-04-11 03:22:00,38.3,35.1,29.93,NNE,12,1.0,3.0,88,0.00,,,0.00,meteohub,2013-04-11 08:22:00,
2013-04-11 03:32:00,38.3,34.7,29.92,NW,309,1.0,11.0,87,0.00,,,0.00,meteohub,2013-04-11 08:32:00,
2013-04-11 03:37:00,38.3,34.7,29.90,NNW,348,2.0,11.0,87,0.00,,,0.00,meteohub,2013-04-11 08:37:00,
2013-04-11 03:42:00,38.1,34.5,29.89,NNE,20,2.0,5.0,87,0.00,,,0.00,meteohub,2013-04-11 08:42:00,
2013-04-11 03:52:00,38.1,34.5,29.91,North,10,6.0,7.0,87,0.00,,,0.00,meteohub,2013-04-11 08:52:00,
2013-04-11 03:57:00,38.1,34.5,29.91,NNE,20,1.0,7.0,87,0.00,,,0.00,meteohub,2013-04-11 08:57:00,
2013-04-11 04:02:00,38.1,34.5,29.91,NW,312,2.0,7.0,87,0.00,,,0.00,meteohub,2013-04-11 09:02:00,
2013-04-11 04:07:00,38.1,34.5,29.91,North,355,1.0,6.0,87,0.00,,,0.00,meteohub,2013-04-11 09:07:00,
2013-04-11 04:17:00,38.1,34.5,29.92,NNE,28,2.0,7.0,87,0.00,,,0.00,meteohub,2013-04-11 09:17:00,
2013-04-11 04:22:00,37.9,34.3,29.92,NE,36,1.0,7.0,87,0.00,,,0.00,meteohub,2013-04-11 09:22:00,
2013-04-11 04:27:00,37.9,34.7,29.94,NE,36,0.0,4.0,88,0.00,,,0.00,meteohub,2013-04-11 09:27:00,
2013-04-11 04:32:00,37.9,34.7,29.93,NE,36,1.0,2.0,88,0.00,,,0.00,meteohub,2013-04-11 09:32:00,
2013-04-11 04:37:00,37.9,34.7,29.90,NNE,27,0.0,3.0,88,0.00,,,0.00,meteohub,2013-04-11 09:37:00,
2013-04-11 04:42:00,37.8,34.5,29.89,WNW,295,1.0,4.0,88,0.00,,,0.00,meteohub,2013-04-11 09:42:00,
2013-04-11 04:47:00,37.8,34.5,29.90,NW,323,1.0,4.0,88,0.00,,,0.00,meteohub,2013-04-11 09:47:00,
2013-04-11 04:52:00,37.8,34.2,29.91,NNE,15,1.0,4.0,87,0.00,,,0.00,meteohub,2013-04-11 09:52:00,
2013-04-11 05:02:00,37.8,34.2,29.91,NNE,26,2.0,6.0,87,0.00,,,0.00,meteohub,2013-04-11 10:02:00,
2013-04-11 05:07:00,37.9,34.3,29.93,NW,308,0.0,6.0,87,0.00,,,0.00,meteohub,2013-04-11 10:07:00,
2013-04-11 05:12:00,37.9,34.3,29.94,NNW,339,1.0,6.0,87,0.00,,,0.00,meteohub,2013-04-11 10:12:00,
2013-04-11 05:17:00,37.9,34.3,29.95,North,9,4.0,5.0,87,0.00,,,0.00,meteohub,2013-04-11 10:17:00,
2013-04-11 05:22:00,38.1,34.5,29.94,NW,311,2.0,5.0,87,0.00,,,0.00,meteohub,2013-04-11 10:22:00,
2013-04-11 05:27:00,38.1,34.3,29.94,WNW,294,0.0,5.0,86,0.00,,,0.00,meteohub,2013-04-11 10:27:00,
2013-04-11 05:37:00,38.1,34.3,29.95,NNE,25,0.0,5.0,86,0.00,,,0.00,meteohub,2013-04-11 10:37:00,
2013-04-11 05:42:00,38.1,34.5,29.96,WNW,283,1.0,5.0,87,0.00,,,0.00,meteohub,2013-04-11 10:42:00,
2013-04-11 05:52:00,37.9,34.2,29.95,WNW,300,0.0,4.0,86,0.00,,,0.00,meteohub,2013-04-11 10:52:00,
2013-04-11 05:57:00,37.8,34.0,29.94,WNW,293,2.0,4.0,86,0.00,,,0.00,meteohub,2013-04-11 10:57:00,
2013-04-11 06:02:00,37.6,33.4,29.93,NW,309,3.0,3.0,85,0.00,,,0.00,meteohub,2013-04-11 11:02:00,
2013-04-11 06:07:00,37.6,33.8,29.95,WNW,302,1.0,4.0,86,0.00,,,0.00,meteohub,2013-04-11 11:07:00,
2013-04-11 06:12:00,37.4,33.6,29.94,NW,304,0.0,4.0,86,0.00,,,0.00,meteohub,2013-04-11 11:12:00,
2013-04-11 06:22:00,37.2,33.4,29.95,NE,42,1.0,4.0,86,0.00,,,0.00,meteohub,2013-04-11 11:22:00,
2013-04-11 06:32:00,37.0,33.8,29.96,WSW,238,2.0,4.0,88,0.00,,,0.00,meteohub,2013-04-11 11:32:00,
2013-04-11 06:37:00,37.0,34.2,29.99,WSW,238,1.0,3.0,89,0.00,,,0.00,meteohub,2013-04-11 11:37:00,
2013-04-11 06:42:00,37.0,34.2,30.00,WSW,241,2.0,3.0,89,0.00,,,0.00,meteohub,2013-04-11 11:42:00,
2013-04-11 06:47:00,37.0,34.2,29.99,WNW,284,2.0,3.0,89,0.00,,,0.00,meteohub,2013-04-11 11:47:00,
2013-04-11 06:57:00,37.2,34.0,29.99,NE,48,0.0,3.0,88,0.00,,,0.00,meteohub,2013-04-11 11:57:00,
2013-04-11 07:02:00,37.4,34.2,29.98,NE,48,0.0,2.0,88,0.00,,,0.00,meteohub,2013-04-11 12:02:00,
2013-04-11 07:07:00,37.6,34.3,29.96,NE,48,1.0,2.0,88,0.00,,,0.00,meteohub,2013-04-11 12:07:00,
2013-04-11 07:12:00,37.6,34.0,29.95,NNE,31,1.0,2.0,87,0.00,,,0.00,meteohub,2013-04-11 12:12:00,
2013-04-11 07:17:00,37.6,34.0,29.94,ENE,57,3.0,4.0,87,0.00,,,0.00,meteohub,2013-04-11 12:17:00,
2013-04-11 07:22:00,37.6,34.0,29.94,NE,38,0.0,7.0,87,0.00,,,0.00,meteohub,2013-04-11 12:22:00,
2013-04-11 07:27:00,37.6,33.8,29.95,NNW,330,0.0,7.0,86,0.00,,,0.00,meteohub,2013-04-11 12:27:00,
2013-04-11 07:37:00,37.8,34.0,29.96,NE,43,0.0,4.0,86,0.00,,,0.00,meteohub,2013-04-11 12:37:00,
2013-04-11 07:47:00,37.9,34.2,29.96,NNW,331,2.0,3.0,86,0.00,,,0.00,meteohub,2013-04-11 12:47:00,
2013-04-11 07:52:00,37.9,34.2,29.95,NNW,338,0.0,3.0,86,0.00,,,0.00,meteohub,2013-04-11 12:52:00,
2013-04-11 07:57:00,37.9,34.2,29.95,NNW,338,1.0,3.0,86,0.00,,,0.00,meteohub,2013-04-11 12:57:00,
2013-04-11 08:02:00,37.9,34.2,29.93,WSW,250,1.0,3.0,86,0.00,,,0.00,meteohub,2013-04-11 13:02:00,
2013-04-11 08:12:00,37.9,34.2,29.93,NNW,330,2.0,3.0,86,0.00,,,0.00,meteohub,2013-04-11 13:12:00,
2013-04-11 08:17:00,37.9,33.8,29.92,NW,322,3.0,4.0,85,0.00,,,0.00,meteohub,2013-04-11 13:17:00,
2013-04-11 08:22:00,38.1,34.3,29.93,NW,305,0.0,5.0,86,0.00,,,0.00,meteohub,2013-04-11 13:22:00,
2013-04-11 08:32:00,38.1,33.8,29.92,NW,308,2.0,5.0,84,0.00,,,0.00,meteohub,2013-04-11 13:32:00,
2013-04-11 08:42:00,38.3,34.2,29.91,ENE,60,2.0,3.0,85,0.00,,,0.00,meteohub,2013-04-11 13:42:00,
2013-04-11 08:47:00,38.3,34.2,29.91,SE,126,1.0,4.0,85,0.00,,,0.00,meteohub,2013-04-11 13:47:00,
2013-04-11 08:52:00,38.3,34.2,29.93,WNW,296,0.0,4.0,85,0.00,,,0.00,meteohub,2013-04-11 13:52:00,
2013-04-11 08:57:00,38.7,35.1,29.94,West,274,1.0,4.0,87,0.00,,,0.00,meteohub,2013-04-11 13:57:00,
2013-04-11 09:02:00,38.8,35.1,29.95,NW,315,1.0,3.0,86,0.00,,,0.00,meteohub,2013-04-11 14:02:00,
2013-04-11 09:07:00,39.4,35.8,29.94,NW,323,1.0,7.0,87,0.00,,,0.00,meteohub,2013-04-11 14:07:00,
2013-04-11 09:12:00,39.9,36.3,29.93,WNW,294,3.0,7.0,87,0.00,,,0.00,meteohub,2013-04-11 14:12:00,
2013-04-11 09:17:00,40.5,36.7,29.93,WNW,282,2.0,5.0,86,0.00,,,0.00,meteohub,2013-04-11 14:17:00,
2013-04-11 09:22:00,40.8,37.2,29.93,West,267,2.0,4.0,87,0.00,,,0.00,meteohub,2013-04-11 14:22:00,
2013-04-11 09:27:00,41.4,37.8,29.93,West,279,1.0,4.0,87,0.00,,,0.00,meteohub,2013-04-11 14:27:00,
2013-04-11 09:32:00,41.7,37.6,29.94,WNW,290,2.0,4.0,85,0.00,,,0.00,meteohub,2013-04-11 14:32:00,
2013-04-11 09:37:00,42.4,38.3,29.93,NW,310,3.0,7.0,85,0.00,,,0.00,meteohub,2013-04-11 14:37:00,
2013-04-11 09:47:00,44.6,38.5,29.93,West,269,3.0,7.0,79,0.00,,,0.00,meteohub,2013-04-11 14:47:00,
2013-04-11 09:57:00,46.0,39.9,29.93,NW,311,3.0,10.0,79,0.00,,,0.00,meteohub,2013-04-11 14:57:00,
2013-04-11 10:02:00,46.9,40.1,29.93,NW,310,2.0,10.0,77,0.00,,,0.00,meteohub,2013-04-11 15:02:00,
2013-04-11 10:12:00,47.1,38.8,29.93,West,275,3.0,9.0,73,0.00,,,0.00,meteohub,2013-04-11 15:12:00,
2013-04-11 10:17:00,46.8,38.3,29.93,West,278,3.0,9.0,72,0.00,,,0.00,meteohub,2013-04-11 15:17:00,
2013-04-11 10:22:00,46.9,39.7,29.92,West,269,5.0,9.0,76,0.00,,,0.00,meteohub,2013-04-11 15:22:00,
2013-04-11 10:27:00,47.1,38.1,29.93,North,355,3.0,9.0,71,0.00,,,0.00,meteohub,2013-04-11 15:27:00,
2013-04-11 10:37:00,48.0,38.3,29.94,SE,136,1.0,9.0,69,0.00,,,0.00,meteohub,2013-04-11 15:37:00,
2013-04-11 10:43:00,48.4,38.7,29.93,WNW,296,2.0,8.0,69,0.00,,,0.00,meteohub,2013-04-11 15:43:00,
2013-04-11 10:52:00,48.9,38.1,29.94,WNW,284,5.0,7.0,66,0.00,,,0.00,meteohub,2013-04-11 15:52:00,
2013-04-11 10:57:00,49.1,38.7,29.94,WSW,252,6.0,7.0,67,0.00,,,0.00,meteohub,2013-04-11 15:57:00,
2013-04-11 11:02:00,49.5,38.7,29.93,WNW,296,3.0,11.0,66,0.00,,,0.00,meteohub,2013-04-11 16:02:00,
2013-04-11 11:07:00,50.0,39.6,29.93,WNW,297,3.0,11.0,67,0.00,,,0.00,meteohub,2013-04-11 16:07:00,
2013-04-11 11:17:00,50.5,38.5,29.94,NW,316,6.0,12.0,63,0.00,,,0.00,meteohub,2013-04-11 16:17:00,
2013-04-11 11:27:00,51.4,39.7,29.95,WSW,238,0.0,12.0,64,0.00,,,0.00,meteohub,2013-04-11 16:27:00,
2013-04-11 11:32:00,51.8,40.1,29.94,North,0,2.0,11.0,64,0.00,,,0.00,meteohub,2013-04-11 16:32:00,
2013-04-11 11:37:00,52.2,40.3,29.94,NNE,22,4.0,11.0,64,0.00,,,0.00,meteohub,2013-04-11 16:37:00,
2013-04-11 11:42:00,52.7,42.1,29.94,NNW,347,2.0,11.0,67,0.00,,,0.00,meteohub,2013-04-11 16:42:00,
2013-04-11 11:47:00,52.9,41.0,29.94,NW,319,2.0,6.0,64,0.00,,,0.00,meteohub,2013-04-11 16:47:00,
2013-04-11 11:52:00,52.9,41.0,29.94,WNW,292,4.0,7.0,64,0.00,,,0.00,meteohub,2013-04-11 16:52:00,
2013-04-11 11:57:00,53.2,42.6,29.94,West,276,2.0,11.0,67,0.00,,,0.00,meteohub,2013-04-11 16:57:00,
2013-04-11 12:02:00,53.8,41.5,29.94,NNW,348,2.0,11.0,63,0.00,,,0.00,meteohub,2013-04-11 17:02:00,
2013-04-11 12:07:00,53.8,41.5,29.94,NW,323,1.0,11.0,63,0.00,,,0.00,meteohub,2013-04-11 17:07:00,
2013-04-11 12:12:00,54.0,41.2,29.93,NNE,31,3.0,6.0,62,0.00,,,0.00,meteohub,2013-04-11 17:12:00,
2013-04-11 12:22:00,54.3,40.8,29.94,NW,313,4.0,6.0,60,0.00,,,0.00,meteohub,2013-04-11 17:22:00,
2013-04-11 12:32:00,55.0,42.6,29.93,West,261,6.0,9.0,63,0.00,,,0.00,meteohub,2013-04-11 17:32:00,
2013-04-11 12:42:00,55.9,41.9,29.92,West,268,2.0,9.0,59,0.00,,,0.00,meteohub,2013-04-11 17:42:00,
2013-04-11 12:52:00,56.3,40.8,29.91,West,263,7.0,7.0,56,0.00,,,0.00,meteohub,2013-04-11 17:52:00,
2013-04-11 13:02:00,56.7,39.2,29.91,NNW,342,3.0,14.0,52,0.00,,,0.00,meteohub,2013-04-11 18:02:00,
2013-04-11 13:12:00,57.4,43.2,29.91,WNW,299,4.0,9.0,59,0.00,,,0.00,meteohub,2013-04-11 18:12:00,
2013-04-11 13:17:00,57.7,43.0,29.90,West,262,5.0,9.0,58,0.00,,,0.00,meteohub,2013-04-11 18:17:00,
2013-04-11 13:22:00,58.1,41.0,29.90,West,275,2.0,10.0,53,0.00,,,0.00,meteohub,2013-04-11 18:22:00,
2013-04-11 13:32:00,58.3,43.2,29.89,West,263,1.0,10.0,57,0.00,,,0.00,meteohub,2013-04-11 18:32:00,
2013-04-11 13:42:00,58.5,41.4,29.89,West,278,2.0,9.0,53,0.00,,,0.00,meteohub,2013-04-11 18:42:00,
2013-04-11 13:52:00,58.1,42.1,29.88,West,277,2.0,8.0,55,0.00,,,0.00,meteohub,2013-04-11 18:52:00,
2013-04-11 14:03:00,59.2,44.8,29.88,NW,326,2.0,7.0,59,0.00,,,0.00,meteohub,2013-04-11 19:03:00,
2013-04-11 14:12:00,59.7,41.5,29.88,NNW,340,2.0,7.0,51,0.00,,,0.00,meteohub,2013-04-11 19:12:00,
2013-04-11 14:22:00,60.1,43.3,29.87,WNW,292,1.0,10.0,54,0.00,,,0.00,meteohub,2013-04-11 19:22:00,
2013-04-11 14:27:00,60.3,42.6,29.87,NW,319,3.0,11.0,52,0.00,,,0.00,meteohub,2013-04-11 19:27:00,
2013-04-11 14:37:00,59.5,43.9,29.87,West,260,6.0,9.0,56,0.00,,,0.00,meteohub,2013-04-11 19:37:00,
2013-04-11 14:47:00,60.1,43.0,29.87,NNW,338,5.0,7.0,53,0.00,,,0.00,meteohub,2013-04-11 19:47:00,
2013-04-11 14:57:00,60.1,42.4,29.87,WNW,295,3.0,7.0,52,0.00,,,0.00,meteohub,2013-04-11 19:57:00,
2013-04-11 15:07:00,60.1,43.0,29.86,WNW,282,4.0,8.0,53,0.00,,,0.00,meteohub,2013-04-11 20:07:00,
2013-04-11 15:12:00,60.6,42.4,29.86,WNW,288,3.0,8.0,51,0.00,,,0.00,meteohub,2013-04-11 20:12:00,
2013-04-11 15:22:00,62.1,44.2,29.86,NW,317,2.0,8.0,52,0.00,,,0.00,meteohub,2013-04-11 20:22:00,
2013-04-11 15:32:00,62.4,43.0,29.85,WNW,285,4.0,7.0,49,0.00,,,0.00,meteohub,2013-04-11 20:32:00,
2013-04-11 15:37:00,62.4,43.0,29.85,NE,55,3.0,7.0,49,0.00,,,0.00,meteohub,2013-04-11 20:37:00,
2013-04-11 15:42:00,62.1,44.2,29.84,West,267,3.0,7.0,52,0.00,,,0.00,meteohub,2013-04-11 20:42:00,
2013-04-11 15:47:00,62.4,42.4,29.84,NNW,332,2.0,7.0,48,0.00,,,0.00,meteohub,2013-04-11 20:47:00,
2013-04-11 15:52:00,62.8,43.9,29.83,WNW,286,3.0,8.0,50,0.00,,,0.00,meteohub,2013-04-11 20:52:00,
2013-04-11 15:57:00,63.0,43.5,29.83,NW,313,0.0,8.0,49,0.00,,,0.00,meteohub,2013-04-11 20:57:00,
2013-04-11 16:02:00,63.1,44.8,29.83,NW,317,3.0,12.0,51,0.00,,,0.00,meteohub,2013-04-11 21:02:00,
2013-04-11 16:12:00,64.2,44.1,29.82,NW,307,3.0,8.0,48,0.00,,,0.00,meteohub,2013-04-11 21:12:00,
2013-04-11 16:22:00,64.2,44.1,29.82,NNW,332,2.0,9.0,48,0.00,,,0.00,meteohub,2013-04-11 21:22:00,
2013-04-11 16:32:00,63.1,43.7,29.83,NW,304,1.0,8.0,49,0.00,,,0.00,meteohub,2013-04-11 21:32:00,
2013-04-11 16:37:00,63.1,42.1,29.83,North,0,2.0,6.0,46,0.00,,,0.00,meteohub,2013-04-11 21:37:00,
2013-04-11 16:42:00,63.0,41.4,29.82,North,11,1.0,5.0,45,0.00,,,0.00,meteohub,2013-04-11 21:42:00,
2013-04-11 16:52:00,63.0,43.5,29.82,North,0,1.0,5.0,49,0.00,,,0.00,meteohub,2013-04-11 21:52:00,
2013-04-11 16:57:00,63.0,43.0,29.82,West,273,1.0,5.0,48,0.00,,,0.00,meteohub,2013-04-11 21:57:00,
2013-04-11 17:07:00,64.0,43.3,29.82,SW,235,3.0,6.0,47,0.00,,,0.00,meteohub,2013-04-11 22:07:00,
2013-04-11 17:12:00,64.0,42.8,29.82,West,265,2.0,6.0,46,0.00,,,0.00,meteohub,2013-04-11 22:12:00,
2013-04-11 17:22:00,63.9,42.1,29.82,West,273,2.0,8.0,45,0.00,,,0.00,meteohub,2013-04-11 22:22:00,
2013-04-11 17:27:00,63.5,41.2,29.82,NNW,342,0.0,8.0,44,0.00,,,0.00,meteohub,2013-04-11 22:27:00,
2013-04-11 17:32:00,62.8,42.3,29.82,West,269,1.0,8.0,47,0.00,,,0.00,meteohub,2013-04-11 22:32:00,
2013-04-11 17:37:00,62.2,42.3,29.82,NNE,24,2.0,8.0,48,0.00,,,0.00,meteohub,2013-04-11 22:37:00,
2013-04-11 17:42:00,61.7,42.8,29.81,NNW,343,1.0,5.0,50,0.00,,,0.00,meteohub,2013-04-11 22:42:00,
2013-04-11 17:47:00,61.5,42.3,29.81,NNW,342,2.0,5.0,49,0.00,,,0.00,meteohub,2013-04-11 22:47:00,
2013-04-11 17:52:00,61.5,41.7,29.81,West,266,4.0,5.0,48,0.00,,,0.00,meteohub,2013-04-11 22:52:00,
2013-04-11 17:57:00,61.5,42.6,29.81,WNW,285,0.0,6.0,50,0.00,,,0.00,meteohub,2013-04-11 22:57:00,
2013-04-11 18:02:00,61.7,42.3,29.81,WNW,294,2.0,6.0,49,0.00,,,0.00,meteohub,2013-04-11 23:02:00,
2013-04-11 18:07:00,61.9,43.0,29.82,WNW,290,0.0,6.0,50,0.00,,,0.00,meteohub,2013-04-11 23:07:00,
2013-04-11 18:12:00,61.9,43.0,29.82,WSW,252,2.0,6.0,50,0.00,,,0.00,meteohub,2013-04-11 23:12:00,
2013-04-11 18:17:00,61.5,42.6,29.82,West,276,1.0,6.0,50,0.00,,,0.00,meteohub,2013-04-11 23:17:00,
2013-04-11 18:22:00,61.3,42.6,29.82,West,265,1.0,3.0,50,0.00,,,0.00,meteohub,2013-04-11 23:22:00,
2013-04-11 18:27:00,61.2,43.0,29.82,WNW,290,1.0,4.0,51,0.00,,,0.00,meteohub,2013-04-11 23:27:00,
2013-04-11 18:32:00,61.0,42.8,29.82,WNW,287,2.0,6.0,51,0.00,,,0.00,meteohub,2013-04-11 23:32:00,
2013-04-11 18:37:00,60.8,42.6,29.82,ENE,74,1.0,6.0,51,0.00,,,0.00,meteohub,2013-04-11 23:37:00,
2013-04-11 18:47:00,60.3,43.5,29.82,WNW,288,1.0,4.0,54,0.00,,,0.00,meteohub,2013-04-11 23:47:00,
2013-04-11 18:52:00,60.1,43.9,29.82,West,277,0.0,4.0,55,0.00,,,0.00,meteohub,2013-04-11 23:52:00,
2013-04-11 18:57:00,59.7,44.1,29.82,West,269,2.0,4.0,56,0.00,,,0.00,meteohub,2013-04-11 23:57:00,
2013-04-11 19:02:00,59.5,43.3,29.82,WSW,257,0.0,4.0,55,0.00,,,0.00,meteohub,2013-04-12 00:02:00,
2013-04-11 19:07:00,59.5,45.1,29.82,WSW,257,0.0,3.0,59,0.00,,,0.00,meteohub,2013-04-12 00:07:00,
2013-04-11 19:12:00,59.4,44.6,29.82,West,260,0.0,3.0,58,0.00,,,0.00,meteohub,2013-04-12 00:12:00,
2013-04-11 19:17:00,59.0,44.8,29.82,West,260,0.0,3.0,59,0.00,,,0.00,meteohub,2013-04-12 00:17:00,
2013-04-11 19:22:00,58.6,44.4,29.83,West,260,1.0,3.0,59,0.00,,,0.00,meteohub,2013-04-12 00:22:00,
2013-04-11 19:32:00,58.1,44.8,29.83,West,260,0.0,2.0,61,0.00,,,0.00,meteohub,2013-04-12 00:32:00,
2013-04-11 19:37:00,57.7,44.8,29.83,West,260,0.0,2.0,62,0.00,,,0.00,meteohub,2013-04-12 00:37:00,
2013-04-11 19:47:00,57.0,45.0,29.83,West,260,0.0,1.0,64,0.00,,,0.00,meteohub,2013-04-12 00:47:00,
2013-04-11 19:52:00,56.3,45.1,29.83,West,260,0.0,1.0,66,0.00,,,0.00,meteohub,2013-04-12 00:52:00,
2013-04-11 20:02:00,55.0,44.6,29.83,West,260,0.0,1.0,68,0.00,,,0.00,meteohub,2013-04-12 01:02:00,
2013-04-11 20:07:00,54.5,44.2,29.83,West,260,0.0,1.0,68,0.00,,,0.00,meteohub,2013-04-12 01:07:00,
2013-04-11 20:17:00,53.6,43.7,29.84,West,260,1.0,1.0,69,0.00,,,0.00,meteohub,2013-04-12 01:17:00,
2013-04-11 20:22:00,53.2,43.7,29.84,West,260,0.0,2.0,70,0.00,,,0.00,meteohub,2013-04-12 01:22:00,
2013-04-11 20:27:00,52.9,44.1,29.84,West,260,1.0,2.0,72,0.00,,,0.00,meteohub,2013-04-12 01:27:00,
2013-04-11 20:32:00,52.5,43.7,29.84,West,260,0.0,1.0,72,0.00,,,0.00,meteohub,2013-04-12 01:32:00,
2013-04-11 20:42:00,52.0,43.5,29.84,West,260,0.0,2.0,73,0.00,,,0.00,meteohub,2013-04-12 01:42:00,
2013-04-11 20:47:00,51.6,43.5,29.85,West,260,0.0,2.0,74,0.00,,,0.00,meteohub,2013-04-12 01:47:00,
2013-04-11 20:52:00,51.4,43.7,29.85,West,260,1.0,1.0,75,0.00,,,0.00,meteohub,2013-04-12 01:52:00,
2013-04-11 21:02:00,50.7,43.2,29.85,West,260,0.0,2.0,75,0.00,,,0.00,meteohub,2013-04-12 02:02:00,
2013-04-11 21:07:00,50.4,43.3,29.85,West,260,1.0,2.0,77,0.00,,,0.00,meteohub,2013-04-12 02:07:00,
2013-04-11 21:17:00,49.8,43.2,29.86,West,260,0.0,2.0,78,0.00,,,0.00,meteohub,2013-04-12 02:17:00,
2013-04-11 21:22:00,49.6,43.0,29.86,West,260,1.0,2.0,78,0.00,,,0.00,meteohub,2013-04-12 02:22:00,
2013-04-11 21:27:00,49.3,42.8,29.86,West,260,1.0,2.0,78,0.00,,,0.00,meteohub,2013-04-12 02:27:00,
2013-04-11 21:32:00,49.1,42.6,29.86,West,260,2.0,2.0,78,0.00,,,0.00,meteohub,2013-04-12 02:32:00,
2013-04-11 21:37:00,48.9,42.1,29.86,West,260,1.0,2.0,77,0.00,,,0.00,meteohub,2013-04-12 02:37:00,
2013-04-11 21:42:00,48.7,41.9,29.86,West,260,0.0,2.0,77,0.00,,,0.00,meteohub,2013-04-12 02:42:00,
2013-04-11 21:47:00,48.7,41.9,29.87,West,260,2.0,2.0,77,0.00,,,0.00,meteohub,2013-04-12 02:47:00,
2013-04-11 21:52:00,48.7,41.9,29.87,West,260,1.0,2.0,77,0.00,,,0.00,meteohub,2013-04-12 02:52:00,
2013-04-11 21:57:00,48.7,41.9,29.87,West,260,1.0,2.0,77,0.00,,,0.00,meteohub,2013-04-12 02:57:00,
2013-04-11 22:02:00,48.7,42.4,29.87,West,260,2.0,2.0,79,0.00,,,0.00,meteohub,2013-04-12 03:02:00,
2013-04-11 22:07:00,48.7,42.3,29.87,West,260,1.0,2.0,78,0.00,,,0.00,meteohub,2013-04-12 03:07:00,
2013-04-11 22:12:00,48.6,42.1,29.87,West,260,1.0,2.0,78,0.00,,,0.00,meteohub,2013-04-12 03:12:00,
2013-04-11 22:17:00,48.6,42.3,29.87,West,260,1.0,2.0,79,0.00,,,0.00,meteohub,2013-04-12 03:17:00,
2013-04-11 22:22:00,48.4,42.3,29.87,West,260,1.0,2.0,79,0.00,,,0.00,meteohub,2013-04-12 03:22:00,
2013-04-11 22:27:00,48.4,42.3,29.87,West,260,0.0,2.0,79,0.00,,,0.00,meteohub,2013-04-12 03:27:00,
2013-04-11 22:32:00,48.4,42.3,29.87,West,260,0.0,2.0,79,0.00,,,0.00,meteohub,2013-04-12 03:32:00,
2013-04-11 22:37:00,48.2,42.6,29.87,West,260,0.0,1.0,81,0.00,,,0.00,meteohub,2013-04-12 03:37:00,
2013-04-11 22:42:00,48.0,42.4,29.88,West,260,0.0,2.0,81,0.00,,,0.00,meteohub,2013-04-12 03:42:00,
2013-04-11 22:52:00,47.7,41.7,29.88,West,260,0.0,1.0,80,0.00,,,0.00,meteohub,2013-04-12 03:52:00,
2013-04-11 22:57:00,47.5,41.9,29.87,West,260,0.0,0.0,81,0.00,,,0.00,meteohub,2013-04-12 03:57:00,
2013-04-11 23:02:00,47.1,41.9,29.88,West,260,0.0,0.0,82,0.00,,,0.00,meteohub,2013-04-12 04:02:00,
2013-04-11 23:07:00,46.9,42.1,29.88,West,260,0.0,1.0,83,0.00,,,0.00,meteohub,2013-04-12 04:07:00,
2013-04-11 23:12:00,46.8,41.9,29.88,West,260,0.0,1.0,83,0.00,,,0.00,meteohub,2013-04-12 04:12:00,
2013-04-11 23:17:00,46.6,41.7,29.88,West,260,0.0,1.0,83,0.00,,,0.00,meteohub,2013-04-12 04:17:00,
2013-04-11 23:22:00,46.4,41.5,29.88,West,260,0.0,1.0,83,0.00,,,0.00,meteohub,2013-04-12 04:22:00,
2013-04-11 23:27:00,46.2,41.7,29.87,West,260,0.0,0.0,84,0.00,,,0.00,meteohub,2013-04-12 04:27:00,
2013-04-11 23:32:00,46.2,41.4,29.87,West,260,0.0,0.0,83,0.00,,,0.00,meteohub,2013-04-12 04:32:00,
2013-04-11 23:37:00,46.2,41.7,29.87,West,260,0.0,0.0,84,0.00,,,0.00,meteohub,2013-04-12 04:37:00,
2013-04-11 23:47:00,46.2,41.7,29.88,West,260,0.0,0.0,84,0.00,,,0.00,meteohub,2013-04-12 04:47:00,
2013-04-11 23:52:00,46.0,41.5,29.88,West,260,0.0,0.0,84,0.00,,,0.00,meteohub,2013-04-12 04:52:00,
2013-04-11 23:57:00,46.0,41.5,29.88,West,260,0.0,0.0,84,0.00,,,0.00,meteohub,2013-04-12 04:57:00,